AKARI (ASTRO-F)

Last updated on Tue Apr 11 2023 00:02:11 GMT+0000 (Coordinated Universal Time)

1 28939U 06005A 23100.79441682 .08970070 30267-5 70081-3 0 9992 2 28939 98.1581 224.7501 0017600 270.8433 247.7745 16.38898021939471

Satellite not in orbit